Location: Unspecified
(0.0000°N, 0.0000°E)
Time: 13:34:34
(UTC+00:00)

COSMO-SKYMED 1 - Visible Passes

Search period start: 16 August 2017 00:00
Search period end: 26 August 2017 00:00
Orbit: 621 x 623 km, 97.9° (Epoch: 16 August)

Date Brightness Start Highest point End Pass type
(mag) Time Alt. Az. Time Alt. Az. Time Alt. Az.
17 Aug 5.8 04:50:22 10° ESE 04:53:01 16° ENE 04:55:40 10° NE visible
17 Aug 6.0 18:35:15 10° NW 18:37:50 16° WNW 18:40:26 10° WSW visible
18 Aug 4.9 05:07:16 10° SE 05:11:00 28° ENE 05:14:42 10° NNE visible
19 Aug 3.6 05:24:45 10° SSE 05:28:59 51° ENE 05:33:10 10° N visible
22 Aug 6.1 04:45:00 10° ESE 04:47:02 13° ENE 04:49:03 10° NE visible
22 Aug 5.9 18:28:48 10° NNW 18:31:50 19° WNW 18:34:54 10° WSW visible
23 Aug 5.2 05:01:33 10° SE 05:05:00 23° ENE 05:08:27 10° NNE visible
23 Aug 6.6 18:49:10 10° WNW 18:49:49 10° WNW 18:50:28 10° W visible
24 Aug 4.1 05:18:53 10° SSE 05:22:59 42° ENE 05:27:03 10° N visible
25 Aug 2.8 05:36:38 10° SSE 05:40:59 79° ENE 05:45:17 10° N visible
